Skip Page Navigation
NASA JPL Caltech
NASA Logo - Jet Propulsion Laboratory + View the NASA Portal
+ Near-Earth Object (NEO) Program
Search JPL
JPL Home Earth Solar System Stars & Galaxies Technology
JPL Solar System Dynamics
BODIES ORBITS EPHEMERIDES TOOLS PHYSICAL DATA DISCOVERY FAQ SITE MAP
JPL Small-Body Database Browser
Search: [ help ]  
6386 Keithnoll (1989 NK1)
Classification: Mars-crossing Asteroid          SPK-ID: 2006386
Ephemeris | Orbit Diagram | Orbital Elements | Physical Parameters | Discovery Circumstances ]

[ show orbit diagram ]
Orbital Elements at Epoch 2456400.5 (2013-Apr-18.0) TDB
Reference: MPO244238 (heliocentric ecliptic J2000)
 Element Value Uncertainty (1-sigma)   Units 
e 0.3012979 n/a  
a 2.2716921 n/a AU
q 1.5872360 n/a AU
i 8.73211 n/a deg
node 119.87746 n/a deg
peri 268.09861 n/a deg
M 277.81214 n/a deg
tp 2456686.0142473
(2014-Jan-28.51424730)
n/a JED
period 1250.6120617
3.42
n/a
n/a
d
yr
n 0.28785905 n/a deg/d
Q 2.9561482 n/a AU
  Orbit Determination Parameters
   # obs. used (total)      886  
   first obs. used      1955-??-??  
   last obs. used      2012-06-06  
   # oppositions      17  
   planetary ephem.      DE403  
   condition code      0  
   fit RMS      0.53  
   data source      MPC:mpn  
   producer      MPCLINUX  

Additional Information
 T_jup = 3.536 

Ephemeris | Orbit Diagram | Orbital Elements | Physical Parameters | Discovery Circumstances ]

Physical Parameter Table
Parameter Symbol Value Units Sigma Reference Notes
absolute magnitude H 12.7 mag n/a PDS3 (MPC 28115)  
rotation period rot_per 3.1381 h n/a Asteroid Lightcurve DataBase (Rev. 2013-May-01) Result based on less than full coverage, so that the period may be wrong by 30 percent or so.
Published Reference List:
[Warner, B.D. (2004) Minor Planet Bul. 31, 36-39.]
SMASSII spectral type spec_B S   n/a EAR-A-5-DDR-TAXONOMY-V4.0 based on a high-resolution spectrum by Xu et al. (1995) or Bus and Binzel (2002)

6386 Keithnoll           Discovered 1989 July 10 by H. E. Holt at Palomar.
The discoverer of numerous transneptunian binaries, Keith Noll (b. 1958), of the Space Telescope Science Institute, has also detected and exploited useful molecular tracers (such as carbon monoxide and ozone) in brown dwarfs and the giant planets. He is also the creator of the Hubble Heritage project of HST images.
NOTE: some special characters may not display properly (any characters within {} are an attempt to place the proper accent above a character)
Reference: 20061109/MPCPages.arcLast Updated: 2006-11-13

Alternate Designations
 1989 NK1 = 1955 RG1 = 1991 FW4 
Ephemeris | Orbit Diagram | Orbital Elements | Physical Parameters | Discovery Circumstances ]
ABOUT SSD CREDITS/AWARDS PRIVACY/COPYRIGHT GLOSSARY LINKS
FirstGov 2013-May-26 08:27 UT
(server date/time)  
NASA Home Page
Site Manager:   Donald K. Yeomans
Webmaster  Alan B. Chamberlin